Time,TemperatureF,DewpointF,PressureIn,WindDirection,WindDirectionDegrees,WindSpeedMPH,WindSpeedGustMPH,Humidity,HourlyPrecipIn,Conditions,Clouds,dailyrainin,SolarRadiationWatts/m^2,SoftwareType,DateUTC
2013-05-22 00:04:00,55.1,49.4,29.60,NW,319,0.0,7.0,81,0.00,,,0.00,0,Wunderground v.1.15,2013-05-22 05:04:00,
2013-05-22 00:14:00,55.0,49.3,29.60,WNW,297,2.0,7.0,81,0.00,,,0.00,0,Wunderground v.1.15,2013-05-22 05:14:00,
2013-05-22 00:19:00,54.9,49.2,29.60,WNW,286,2.0,2.0,81,0.00,,,0.00,0,Wunderground v.1.15,2013-05-22 05:19:00,
2013-05-22 00:24:00,54.9,49.2,29.60,NW,306,1.0,7.0,81,0.00,,,0.00,0,Wunderground v.1.15,2013-05-22 05:24:00,
2013-05-22 00:34:00,54.9,49.2,29.60,NW,311,1.0,7.0,81,0.00,,,0.00,0,Wunderground v.1.15,2013-05-22 05:34:00,
2013-05-22 00:44:00,54.7,49.3,29.60,NNW,329,2.0,2.0,82,0.00,,,0.00,0,Wunderground v.1.15,2013-05-22 05:44:00,
2013-05-22 00:54:00,54.6,49.2,29.60,NNW,328,2.0,7.0,82,0.00,,,0.00,0,Wunderground v.1.15,2013-05-22 05:54:00,
2013-05-22 00:59:00,54.5,49.1,29.60,WNW,297,2.0,7.0,82,0.00,,,0.00,0,Wunderground v.1.15,2013-05-22 05:59:00,
2013-05-22 01:09:00,54.4,48.7,29.60,NW,309,2.0,7.0,81,0.00,,,0.00,0,Wunderground v.1.15,2013-05-22 06:09:00,
2013-05-22 01:19:00,54.3,48.9,29.60,NW,309,2.0,7.0,82,0.00,,,0.00,0,Wunderground v.1.15,2013-05-22 06:19:00,
2013-05-22 01:24:00,54.2,48.8,29.60,North,355,2.0,7.0,82,0.00,,,0.00,0,Wunderground v.1.15,2013-05-22 06:24:00,
2013-05-22 01:29:00,54.1,48.7,29.60,NNW,332,2.0,2.0,82,0.00,,,0.00,0,Wunderground v.1.15,2013-05-22 06:29:00,
2013-05-22 01:39:00,53.9,48.9,29.60,NW,325,2.0,2.0,83,0.00,,,0.00,0,Wunderground v.1.15,2013-05-22 06:39:00,
2013-05-22 01:49:00,53.6,48.9,29.60,NW,306,1.0,7.0,84,0.00,,,0.00,0,Wunderground v.1.15,2013-05-22 06:49:00,
2013-05-22 01:59:00,53.3,48.6,29.61,WNW,288,1.0,1.0,84,0.00,,,0.00,0,Wunderground v.1.15,2013-05-22 06:59:00,
2013-05-22 02:04:00,53.2,48.5,29.61,NW,313,1.0,7.0,84,0.00,,,0.00,0,Wunderground v.1.15,2013-05-22 07:04:00,
2013-05-22 02:14:00,53.1,48.4,29.61,NW,311,0.0,7.0,84,0.00,,,0.00,0,Wunderground v.1.15,2013-05-22 07:14:00,
2013-05-22 02:24:00,53.0,48.3,29.61,NW,317,1.0,7.0,84,0.00,,,0.00,0,Wunderground v.1.15,2013-05-22 07:24:00,
2013-05-22 02:35:00,52.8,48.4,29.62,WNW,298,1.0,7.0,85,0.00,,,0.00,0,Wunderground v.1.15,2013-05-22 07:35:00,
2013-05-22 02:44:00,52.7,48.3,29.62,WNW,290,1.0,7.0,85,0.00,,,0.00,0,Wunderground v.1.15,2013-05-22 07:44:00,
2013-05-22 02:54:00,52.7,48.3,29.62,NW,305,1.0,6.0,85,0.00,,,0.00,0,Wunderground v.1.15,2013-05-22 07:54:00,
2013-05-22 03:05:00,52.7,48.3,29.62,NW,325,1.0,7.0,85,0.00,,,0.00,0,Wunderground v.1.15,2013-05-22 08:05:00,
2013-05-22 03:10:00,52.7,48.3,29.62,NW,310,1.0,1.0,85,0.00,,,0.00,0,Wunderground v.1.15,2013-05-22 08:10:00,
2013-05-22 03:14:00,52.7,48.3,29.61,WNW,287,1.0,7.0,85,0.00,,,0.00,0,Wunderground v.1.15,2013-05-22 08:14:00,
2013-05-22 03:25:00,52.8,48.4,29.61,WNW,288,1.0,7.0,85,0.00,,,0.00,0,Wunderground v.1.15,2013-05-22 08:25:00,
2013-05-22 03:34:00,52.6,48.2,29.61,NW,310,1.0,7.0,85,0.00,,,0.00,0,Wunderground v.1.15,2013-05-22 08:34:00,
2013-05-22 03:44:00,52.5,48.4,29.61,NNW,344,2.0,7.0,86,0.00,,,0.00,0,Wunderground v.1.15,2013-05-22 08:44:00,
2013-05-22 03:54:00,52.3,48.5,29.61,NW,306,1.0,7.0,87,0.00,,,0.00,0,Wunderground v.1.15,2013-05-22 08:54:00,
2013-05-22 04:05:00,52.2,48.4,29.61,WNW,288,1.0,7.0,87,0.00,,,0.00,0,Wunderground v.1.15,2013-05-22 09:05:00,
2013-05-22 04:14:00,52.2,48.8,29.60,WNW,294,1.0,7.0,88,0.00,,,0.00,0,Wunderground v.1.15,2013-05-22 09:14:00,
2013-05-22 04:24:00,52.2,48.8,29.60,North,355,1.0,7.0,88,0.00,,,0.00,0,Wunderground v.1.15,2013-05-22 09:24:00,
2013-05-22 04:29:00,52.1,48.3,29.60,WNW,301,1.0,1.0,87,0.00,,,0.00,0,Wunderground v.1.15,2013-05-22 09:29:00,
2013-05-22 04:35:00,52.1,48.7,29.60,NW,325,2.0,2.0,88,0.00,,,0.00,0,Wunderground v.1.15,2013-05-22 09:35:00,
2013-05-22 04:44:00,52.1,48.7,29.60,WNW,302,2.0,7.0,88,0.00,,,0.00,0,Wunderground v.1.15,2013-05-22 09:44:00,
2013-05-22 04:54:00,52.0,48.6,29.60,WNW,298,2.0,7.0,88,0.00,,,0.00,0,Wunderground v.1.15,2013-05-22 09:54:00,
2013-05-22 05:04:00,52.0,48.6,29.60,West,277,1.0,7.0,88,0.00,,,0.00,0,Wunderground v.1.15,2013-05-22 10:04:00,
2013-05-22 05:09:00,52.0,48.6,29.60,WSW,257,1.0,1.0,88,0.00,,,0.00,0,Wunderground v.1.15,2013-05-22 10:09:00,
2013-05-22 05:15:00,51.9,48.5,29.60,WNW,301,2.0,2.0,88,0.00,,,0.00,0,Wunderground v.1.15,2013-05-22 10:15:00,
2013-05-22 05:20:00,51.9,48.5,29.60,WNW,298,2.0,10.0,88,0.00,,,0.00,0,Wunderground v.1.15,2013-05-22 10:20:00,
2013-05-22 05:29:00,51.8,48.4,29.60,WSW,255,2.0,2.0,88,0.00,,,0.00,0,Wunderground v.1.15,2013-05-22 10:29:00,
2013-05-22 05:39:00,51.9,48.5,29.60,WNW,292,1.0,1.0,88,0.00,,,0.00,0,Wunderground v.1.15,2013-05-22 10:39:00,
2013-05-22 05:49:00,51.9,48.5,29.60,WNW,300,1.0,4.0,88,0.00,,,0.00,0,Wunderground v.1.15,2013-05-22 10:49:00,
2013-05-22 06:00:00,51.8,48.4,29.60,NW,321,3.0,3.0,88,0.00,,,0.00,0,Wunderground v.1.15,2013-05-22 11:00:00,
2013-05-22 06:09:00,51.8,48.4,29.60,NW,314,2.0,4.0,88,0.00,,,0.00,0,Wunderground v.1.15,2013-05-22 11:09:00,
2013-05-22 06:19:00,51.9,48.2,29.60,NW,311,2.0,2.0,87,0.00,,,0.00,0,Wunderground v.1.15,2013-05-22 11:19:00,
2013-05-22 06:29:00,51.8,48.1,29.60,WNW,297,3.0,8.0,87,0.00,,,0.00,5,Wunderground v.1.15,2013-05-22 11:29:00,
2013-05-22 06:35:00,51.9,48.2,29.60,NW,315,3.0,8.0,87,0.00,,,0.00,5,Wunderground v.1.15,2013-05-22 11:35:00,
2013-05-22 06:44:00,51.9,48.2,29.60,WNW,296,2.0,8.0,87,0.00,,,0.00,9,Wunderground v.1.15,2013-05-22 11:44:00,
2013-05-22 06:54:00,52.0,48.3,29.60,NW,313,3.0,8.0,87,0.00,,,0.00,21,Wunderground v.1.15,2013-05-22 11:54:00,
2013-05-22 07:04:00,52.0,48.3,29.61,NNW,327,2.0,8.0,87,0.00,,,0.00,46,Wunderground v.1.15,2013-05-22 12:04:00,
2013-05-22 07:10:00,52.1,48.3,29.61,WNW,300,3.0,8.0,87,0.00,,,0.00,60,Wunderground v.1.15,2013-05-22 12:10:00,
2013-05-22 07:19:00,52.2,48.1,29.61,NW,313,2.0,8.0,86,0.00,,,0.00,65,Wunderground v.1.15,2013-05-22 12:19:00,
2013-05-22 07:24:00,52.3,48.2,29.61,NW,309,2.0,8.0,86,0.00,,,0.00,56,Wunderground v.1.15,2013-05-22 12:24:00,
2013-05-22 07:34:00,52.6,48.5,29.61,NW,304,2.0,2.0,86,0.00,,,0.00,90,Wunderground v.1.15,2013-05-22 12:34:00,
2013-05-22 07:44:00,52.8,48.7,29.62,NNW,327,1.0,8.0,86,0.00,,,0.00,107,Wunderground v.1.15,2013-05-22 12:44:00,
2013-05-22 07:50:00,53.0,48.9,29.62,NNW,335,2.0,2.0,86,0.00,,,0.00,125,Wunderground v.1.15,2013-05-22 12:50:00,
2013-05-22 07:59:00,53.0,48.6,29.62,NNW,328,4.0,8.0,85,0.00,,,0.00,104,Wunderground v.1.15,2013-05-22 12:59:00,
2013-05-22 08:09:00,53.1,48.7,29.62,WNW,300,3.0,3.0,85,0.00,,,0.00,109,Wunderground v.1.15,2013-05-22 13:09:00,
2013-05-22 08:20:00,53.2,48.8,29.63,North,350,2.0,2.0,85,0.00,,,0.00,98,Wunderground v.1.15,2013-05-22 13:20:00,
2013-05-22 08:29:00,53.3,48.9,29.63,WNW,298,2.0,8.0,85,0.00,,,0.00,114,Wunderground v.1.15,2013-05-22 13:29:00,
2013-05-22 08:39:00,53.5,49.1,29.63,WNW,286,3.0,8.0,85,0.00,,,0.00,134,Wunderground v.1.15,2013-05-22 13:39:00,
2013-05-22 08:49:00,53.5,48.8,29.64,North,351,4.0,4.0,84,0.00,,,0.00,162,Wunderground v.1.15,2013-05-22 13:49:00,
2013-05-22 08:54:00,53.6,48.9,29.64,NW,306,3.0,5.0,84,0.00,,,0.00,174,Wunderground v.1.15,2013-05-22 13:54:00,
2013-05-22 09:04:00,53.6,48.9,29.64,WNW,293,4.0,8.0,84,0.00,,,0.00,190,Wunderground v.1.15,2013-05-22 14:04:00,
2013-05-22 09:09:00,53.7,49.0,29.64,WNW,296,4.0,4.0,84,0.00,,,0.00,188,Wunderground v.1.15,2013-05-22 14:09:00,
2013-05-22 09:19:00,54.1,49.4,29.65,NW,304,1.0,1.0,84,0.00,,,0.00,156,Wunderground v.1.15,2013-05-22 14:19:00,
2013-05-22 09:24:00,54.2,49.1,29.65,WSW,237,1.0,8.0,83,0.00,,,0.00,146,Wunderground v.1.15,2013-05-22 14:24:00,
2013-05-22 09:34:00,54.3,49.2,29.66,NW,311,1.0,8.0,83,0.00,,,0.00,188,Wunderground v.1.15,2013-05-22 14:34:00,
2013-05-22 09:39:00,54.6,49.5,29.66,WNW,302,2.0,2.0,83,0.00,,,0.00,227,Wunderground v.1.15,2013-05-22 14:39:00,
2013-05-22 09:44:00,55.0,49.3,29.66,NW,307,1.0,8.0,81,0.00,,,0.00,172,Wunderground v.1.15,2013-05-22 14:44:00,
2013-05-22 09:49:00,55.0,49.3,29.66,West,266,2.0,2.0,81,0.00,,,0.00,163,Wunderground v.1.15,2013-05-22 14:49:00,
2013-05-22 09:54:00,55.0,48.9,29.66,West,275,2.0,8.0,80,0.00,,,0.00,146,Wunderground v.1.15,2013-05-22 14:54:00,
2013-05-22 10:04:00,55.5,49.4,29.67,WNW,303,2.0,8.0,80,0.00,,,0.00,336,Wunderground v.1.15,2013-05-22 15:04:00,
2013-05-22 10:10:00,55.7,49.3,29.67,NW,311,1.0,1.0,79,0.00,,,0.00,125,Wunderground v.1.15,2013-05-22 15:10:00,
2013-05-22 10:19:00,55.3,48.9,29.67,NW,311,2.0,8.0,79,0.00,,,0.00,281,Wunderground v.1.15,2013-05-22 15:19:00,
2013-05-22 10:29:00,55.4,49.0,29.67,NW,310,3.0,8.0,79,0.00,,,0.00,292,Wunderground v.1.15,2013-05-22 15:29:00,
2013-05-22 10:39:00,55.3,49.2,29.67,NW,305,3.0,3.0,80,0.00,,,0.00,334,Wunderground v.1.15,2013-05-22 15:39:00,
2013-05-22 10:44:00,55.7,49.6,29.67,WNW,300,3.0,8.0,80,0.00,,,0.00,362,Wunderground v.1.15,2013-05-22 15:44:00,
2013-05-22 10:49:00,56.3,49.5,29.67,NNW,347,3.0,8.0,78,0.00,,,0.00,297,Wunderground v.1.15,2013-05-22 15:49:00,
2013-05-22 10:54:00,56.2,49.1,29.67,West,276,4.0,8.0,77,0.00,,,0.00,352,Wunderground v.1.15,2013-05-22 15:54:00,
2013-05-22 11:04:00,56.6,49.5,29.67,NW,305,4.0,8.0,77,0.00,,,0.00,229,Wunderground v.1.15,2013-05-22 16:04:00,
2013-05-22 11:15:00,56.4,49.3,29.68,NW,320,3.0,8.0,77,0.00,,,0.00,285,Wunderground v.1.15,2013-05-22 16:15:00,
2013-05-22 11:24:00,57.3,49.4,29.68,NW,321,3.0,7.0,75,0.00,,,0.00,348,Wunderground v.1.15,2013-05-22 16:24:00,
2013-05-22 11:29:00,57.1,49.2,29.68,NNW,342,3.0,3.0,75,0.00,,,0.00,243,Wunderground v.1.15,2013-05-22 16:29:00,
2013-05-22 11:39:00,57.2,49.3,29.68,NNW,332,2.0,2.0,75,0.00,,,0.00,269,Wunderground v.1.15,2013-05-22 16:39:00,
2013-05-22 11:44:00,57.0,49.2,29.69,WNW,298,2.0,8.0,75,0.00,,,0.00,160,Wunderground v.1.15,2013-05-22 16:44:00,
2013-05-22 11:49:00,57.0,49.9,29.69,NW,311,2.0,8.0,77,0.00,,,0.00,241,Wunderground v.1.15,2013-05-22 16:49:00,
2013-05-22 11:59:00,56.1,49.7,29.70,NW,305,1.0,8.0,79,0.00,,,0.00,271,Wunderground v.1.15,2013-05-22 16:59:00,
2013-05-22 12:05:00,56.5,50.4,29.70,NW,313,1.0,8.0,80,0.00,,,0.00,425,Wunderground v.1.15,2013-05-22 17:05:00,
2013-05-22 12:14:00,56.9,50.1,29.70,NNW,342,1.0,5.0,78,0.00,,,0.00,309,Wunderground v.1.15,2013-05-22 17:14:00,
2013-05-22 12:24:00,56.2,49.8,29.70,NW,306,4.0,8.0,79,0.00,,,0.00,220,Wunderground v.1.15,2013-05-22 17:24:00,
2013-05-22 12:35:00,56.7,50.3,29.70,WNW,302,3.0,8.0,79,0.00,,,0.00,320,Wunderground v.1.15,2013-05-22 17:35:00,
2013-05-22 12:44:00,56.6,50.8,29.70,West,270,1.0,8.0,81,0.00,,,0.00,279,Wunderground v.1.15,2013-05-22 17:44:00,
2013-05-22 12:54:00,56.2,51.7,29.70,WSW,245,0.0,8.0,85,0.00,,,0.00,246,Wunderground v.1.15,2013-05-22 17:54:00,
2013-05-22 13:04:00,56.4,52.3,29.71,NW,309,0.0,8.0,86,0.00,,,0.00,294,Wunderground v.1.15,2013-05-22 18:04:00,
2013-05-22 13:09:00,56.7,52.6,29.71,NNW,327,0.0,8.0,86,0.00,,,0.00,408,Wunderground v.1.15,2013-05-22 18:09:00,
2013-05-22 13:19:00,55.5,51.4,29.71,WSW,256,1.0,1.0,86,0.00,,,0.01,190,Wunderground v.1.15,2013-05-22 18:19:00,
2013-05-22 13:29:00,55.2,52.0,29.71,WNW,302,1.0,1.0,89,0.00,,,0.01,413,Wunderground v.1.15,2013-05-22 18:29:00,
2013-05-22 13:39:00,55.6,52.7,29.71,NW,315,2.0,2.0,90,0.00,,,0.01,594,Wunderground v.1.15,2013-05-22 18:39:00,
2013-05-22 13:49:00,55.7,52.2,29.71,NW,312,2.0,8.0,88,0.00,,,0.01,285,Wunderground v.1.15,2013-05-22 18:49:00,
2013-05-22 13:59:00,55.0,51.5,29.72,NW,311,3.0,3.0,88,0.00,,,0.01,304,Wunderground v.1.15,2013-05-22 18:59:00,
2013-05-22 14:09:00,56.6,52.8,29.72,NW,305,1.0,8.0,87,0.00,,,0.01,396,Wunderground v.1.15,2013-05-22 19:09:00,
2013-05-22 14:19:00,55.9,51.8,29.71,North,360,2.0,8.0,86,0.00,,,0.01,77,Wunderground v.1.15,2013-05-22 19:19:00,
2013-05-22 14:24:00,55.3,51.5,29.71,WNW,299,2.0,8.0,87,0.00,,,0.01,202,Wunderground v.1.15,2013-05-22 19:24:00,
2013-05-22 14:34:00,55.3,51.8,29.72,NNE,20,1.0,6.0,88,0.00,,,0.01,364,Wunderground v.1.15,2013-05-22 19:34:00,
2013-05-22 14:39:00,55.2,51.1,29.72,WNW,296,2.0,8.0,86,0.00,,,0.01,515,Wunderground v.1.15,2013-05-22 19:39:00,
2013-05-22 14:44:00,56.4,51.9,29.71,NW,323,3.0,8.0,85,0.00,,,0.01,359,Wunderground v.1.15,2013-05-22 19:44:00,
2013-05-22 14:54:00,56.5,51.4,29.71,NW,312,2.0,8.0,83,0.00,,,0.01,325,Wunderground v.1.15,2013-05-22 19:54:00,
2013-05-22 14:59:00,56.7,51.6,29.71,NW,321,2.0,2.0,83,0.00,,,0.01,497,Wunderground v.1.15,2013-05-22 19:59:00,
2013-05-22 15:05:00,58.0,51.9,29.71,North,355,2.0,8.0,80,0.00,,,0.01,877,Wunderground v.1.15,2013-05-22 20:05:00,
2013-05-22 15:14:00,60.6,52.3,29.71,WNW,298,3.0,8.0,74,0.00,,,0.01,1276,Wunderground v.1.15,2013-05-22 20:14:00,
2013-05-22 15:24:00,60.0,50.2,29.71,WNW,303,4.0,8.0,70,0.00,,,0.01,603,Wunderground v.1.15,2013-05-22 20:24:00,
2013-05-22 15:34:00,59.7,50.7,29.71,NW,316,5.0,8.0,72,0.00,,,0.01,200,Wunderground v.1.15,2013-05-22 20:34:00,
2013-05-22 15:44:00,58.6,49.2,29.71,WNW,299,3.0,6.0,71,0.00,,,0.01,327,Wunderground v.1.15,2013-05-22 20:44:00,
2013-05-22 15:49:00,59.0,49.6,29.71,NE,43,3.0,3.0,71,0.00,,,0.01,494,Wunderground v.1.15,2013-05-22 20:49:00,
2013-05-22 16:00:00,59.0,50.0,29.71,NNE,17,1.0,8.0,72,0.00,,,0.01,156,Wunderground v.1.15,2013-05-22 21:00:00,
2013-05-22 16:09:00,58.6,49.6,29.71,NW,316,3.0,8.0,72,0.00,,,0.01,172,Wunderground v.1.15,2013-05-22 21:09:00,
2013-05-22 16:19:00,58.7,50.1,29.71,North,10,2.0,8.0,73,0.00,,,0.01,185,Wunderground v.1.15,2013-05-22 21:19:00,
2013-05-22 16:24:00,59.1,50.1,29.71,North,351,1.0,8.0,72,0.00,,,0.01,364,Wunderground v.1.15,2013-05-22 21:24:00,
2013-05-22 16:35:00,59.5,50.1,29.72,NW,323,2.0,8.0,71,0.00,,,0.01,118,Wunderground v.1.15,2013-05-22 21:35:00,
2013-05-22 16:44:00,59.5,50.1,29.72,NNW,330,1.0,3.0,71,0.00,,,0.01,63,Wunderground v.1.15,2013-05-22 21:44:00,
2013-05-22 16:49:00,59.1,49.7,29.72,NNW,338,2.0,2.0,71,0.00,,,0.01,107,Wunderground v.1.15,2013-05-22 21:49:00,
2013-05-22 16:59:00,59.0,50.0,29.72,NNW,333,2.0,2.0,72,0.00,,,0.01,105,Wunderground v.1.15,2013-05-22 21:59:00,
2013-05-22 17:04:00,59.1,50.1,29.72,NW,308,1.0,8.0,72,0.00,,,0.01,158,Wunderground v.1.15,2013-05-22 22:04:00,
2013-05-22 17:14:00,59.3,50.3,29.72,North,355,1.0,8.0,72,0.00,,,0.01,155,Wunderground v.1.15,2013-05-22 22:14:00,
2013-05-22 17:24:00,59.1,49.7,29.72,NNW,331,2.0,8.0,71,0.00,,,0.01,33,Wunderground v.1.15,2013-05-22 22:24:00,
2013-05-22 17:34:00,58.5,49.5,29.73,North,355,2.0,8.0,72,0.00,,,0.01,42,Wunderground v.1.15,2013-05-22 22:34:00,
2013-05-22 17:39:00,58.4,49.4,29.73,NW,325,2.0,8.0,72,0.00,,,0.01,56,Wunderground v.1.15,2013-05-22 22:39:00,
2013-05-22 17:49:00,58.3,49.7,29.74,NW,325,2.0,8.0,73,0.00,,,0.01,109,Wunderground v.1.15,2013-05-22 22:49:00,
2013-05-22 17:59:00,58.3,49.7,29.74,NNW,331,2.0,8.0,73,0.00,,,0.01,102,Wunderground v.1.15,2013-05-22 22:59:00,
2013-05-22 18:09:00,58.3,49.7,29.74,NW,318,1.0,1.0,73,0.00,,,0.01,77,Wunderground v.1.15,2013-05-22 23:09:00,
2013-05-22 18:19:00,58.4,50.1,29.74,NNW,339,1.0,1.0,74,0.00,,,0.01,69,Wunderground v.1.15,2013-05-22 23:19:00,
2013-05-22 18:29:00,58.6,50.0,29.74,NNW,343,0.0,8.0,73,0.00,,,0.01,37,Wunderground v.1.15,2013-05-22 23:29:00,
2013-05-22 18:39:00,58.7,49.7,29.74,NW,311,2.0,8.0,72,0.00,,,0.01,104,Wunderground v.1.15,2013-05-22 23:39:00,
2013-05-22 18:49:00,58.7,49.7,29.75,NW,313,3.0,8.0,72,0.00,,,0.01,98,Wunderground v.1.15,2013-05-22 23:49:00,
2013-05-22 18:59:00,58.9,49.9,29.75,NNE,25,2.0,2.0,72,0.00,,,0.01,104,Wunderground v.1.15,2013-05-22 23:59:00,
2013-05-22 19:04:00,59.0,49.6,29.75,North,10,1.0,8.0,71,0.00,,,0.01,77,Wunderground v.1.15,2013-05-23 00:04:00,
2013-05-22 19:14:00,58.9,49.1,29.76,NW,318,1.0,4.0,70,0.00,,,0.01,35,Wunderground v.1.15,2013-05-23 00:14:00,
2013-05-22 19:19:00,58.8,49.0,29.76,NW,321,2.0,8.0,70,0.00,,,0.01,33,Wunderground v.1.15,2013-05-23 00:19:00,
2013-05-22 19:29:00,58.7,48.9,29.77,NNW,338,2.0,2.0,70,0.00,,,0.01,49,Wunderground v.1.15,2013-05-23 00:29:00,
2013-05-22 19:39:00,58.4,49.0,29.77,North,5,1.0,1.0,71,0.00,,,0.01,42,Wunderground v.1.15,2013-05-23 00:39:00,
2013-05-22 19:49:00,58.1,48.7,29.77,WNW,290,2.0,8.0,71,0.00,,,0.01,33,Wunderground v.1.15,2013-05-23 00:49:00,
2013-05-22 19:55:00,57.9,48.6,29.77,NNE,30,2.0,8.0,71,0.00,,,0.01,26,Wunderground v.1.15,2013-05-23 00:55:00,
2013-05-22 20:04:00,57.8,48.5,29.77,North,10,2.0,8.0,71,0.00,,,0.01,12,Wunderground v.1.15,2013-05-23 01:04:00,
2013-05-22 20:14:00,57.6,48.6,29.78,NW,320,1.0,2.0,72,0.00,,,0.01,5,Wunderground v.1.15,2013-05-23 01:14:00,
2013-05-22 20:24:00,57.3,48.3,29.78,North,9,2.0,8.0,72,0.00,,,0.01,7,Wunderground v.1.15,2013-05-23 01:24:00,
2013-05-22 20:35:00,57.0,48.4,29.79,NNW,336,2.0,8.0,73,0.00,,,0.01,0,Wunderground v.1.15,2013-05-23 01:35:00,
2013-05-22 20:44:00,56.8,48.2,29.80,NNW,336,1.0,8.0,73,0.00,,,0.01,0,Wunderground v.1.15,2013-05-23 01:44:00,
2013-05-22 20:54:00,56.7,48.5,29.80,NNW,344,1.0,8.0,74,0.00,,,0.01,0,Wunderground v.1.15,2013-05-23 01:54:00,
2013-05-22 21:04:00,56.5,48.7,29.80,NNW,335,0.0,8.0,75,0.00,,,0.01,0,Wunderground v.1.15,2013-05-23 02:04:00,
2013-05-22 21:09:00,56.5,48.7,29.80,NNW,346,0.0,8.0,75,0.00,,,0.01,0,Wunderground v.1.15,2013-05-23 02:09:00,
2013-05-22 21:19:00,56.4,48.6,29.81,NNW,344,0.0,8.0,75,0.00,,,0.01,0,Wunderground v.1.15,2013-05-23 02:19:00,
2013-05-22 21:24:00,56.4,48.9,29.81,NE,42,0.0,8.0,76,0.00,,,0.01,0,Wunderground v.1.15,2013-05-23 02:24:00,
2013-05-22 21:34:00,56.1,49.0,29.82,North,355,2.0,8.0,77,0.00,,,0.01,0,Wunderground v.1.15,2013-05-23 02:34:00,
2013-05-22 21:39:00,56.0,48.9,29.82,NNW,333,0.0,8.0,77,0.00,,,0.01,0,Wunderground v.1.15,2013-05-23 02:39:00,
2013-05-22 21:49:00,55.8,49.0,29.82,NNW,332,0.0,8.0,78,0.00,,,0.01,0,Wunderground v.1.15,2013-05-23 02:49:00,
2013-05-22 21:59:00,55.6,49.2,29.83,NW,319,0.0,8.0,79,0.00,,,0.01,0,Wunderground v.1.15,2013-05-23 02:59:00,
2013-05-22 22:04:00,55.5,49.1,29.83,NNW,335,0.0,8.0,79,0.00,,,0.01,0,Wunderground v.1.15,2013-05-23 03:04:00,
2013-05-22 22:09:00,55.4,49.0,29.83,NW,319,0.0,8.0,79,0.00,,,0.01,0,Wunderground v.1.15,2013-05-23 03:09:00,
2013-05-22 22:19:00,55.3,49.2,29.83,WNW,302,1.0,1.0,80,0.00,,,0.01,0,Wunderground v.1.15,2013-05-23 03:19:00,
2013-05-22 22:24:00,55.3,49.2,29.83,NW,306,0.0,8.0,80,0.00,,,0.01,0,Wunderground v.1.15,2013-05-23 03:24:00,
2013-05-22 22:34:00,55.3,49.2,29.84,WNW,290,0.0,8.0,80,0.00,,,0.01,0,Wunderground v.1.15,2013-05-23 03:34:00,
2013-05-22 22:39:00,55.3,49.2,29.84,NW,314,1.0,8.0,80,0.00,,,0.01,0,Wunderground v.1.15,2013-05-23 03:39:00,
2013-05-22 22:44:00,55.2,49.1,29.85,NW,305,2.0,8.0,80,0.00,,,0.01,0,Wunderground v.1.15,2013-05-23 03:44:00,
2013-05-22 22:54:00,55.2,49.1,29.85,NNW,340,1.0,8.0,80,0.00,,,0.01,0,Wunderground v.1.15,2013-05-23 03:54:00,
2013-05-22 23:04:00,55.1,49.4,29.85,WNW,298,1.0,8.0,81,0.00,,,0.01,0,Wunderground v.1.15,2013-05-23 04:04:00,
2013-05-22 23:09:00,55.1,49.4,29.85,NNW,332,0.0,8.0,81,0.00,,,0.01,0,Wunderground v.1.15,2013-05-23 04:09:00,
2013-05-22 23:14:00,55.0,49.3,29.85,WNW,300,1.0,8.0,81,0.00,,,0.01,0,Wunderground v.1.15,2013-05-23 04:14:00,
2013-05-22 23:24:00,54.9,49.5,29.85,NW,308,1.0,2.0,82,0.00,,,0.01,0,Wunderground v.1.15,2013-05-23 04:24:00,
2013-05-22 23:34:00,54.7,49.3,29.85,NW,317,1.0,8.0,82,0.00,,,0.01,0,Wunderground v.1.15,2013-05-23 04:34:00,
2013-05-22 23:44:00,54.6,49.5,29.86,NNW,341,0.0,8.0,83,0.00,,,0.01,0,Wunderground v.1.15,2013-05-23 04:44:00,
2013-05-22 23:54:00,54.6,49.5,29.86,NNW,330,1.0,8.0,83,0.00,,,0.01,0,Wunderground v.1.15,2013-05-23 04:54:00,
2013-05-22 23:59:00,54.6,49.5,29.86,NW,313,1.0,1.0,83,0.00,,,0.00,0,Wunderground v.1.15,2013-05-23 04:59:00,